Hourly Data Report for October 22, 2014

All times are specified in Local Standard Time (LST). Add 1 hour to adjust for Daylight Saving Time where and when it is observed.

Metadata including Station Name, Province, Latitude, Longitude, Elevation, Climate ID, WMO ID, TC ID
GRAND ETANG
NOVA SCOTIA
Latitude: 46°33'00.000" N Longitude: 61°03'00.000" W Elevation: 12.80 m
Climate ID: 8201969 WMO ID: TC ID: WZQ
Hourly Data Report for October 21, 2014
Temp Definition
°C

Dew Point Temp Definition
°C

Rel Hum Definition
%

Wind Dir Definition
10's deg
Wind Spd Definition
km/h

Visibility Definition
km

Stn Press Definition
kPa

Hmdx Definition

Wind Chill Definition

Weather Definition

00:00 8.7 LegendMM 70 24 45 101.05 LegendNANA
01:00 8.8 LegendMM 70 24 42 101.10 LegendNANA
02:00 8.7 LegendMM 71 25 44 101.17 LegendNANA
03:00 8.5 LegendMM 68 25 42 101.23 LegendNANA
04:00 8.5 LegendMM 71 25 35 101.30 LegendNANA
05:00 8.5 LegendMM 73 25 34 101.38 LegendNANA
06:00 8.4 LegendMM 73 24 38 101.46 LegendNANA
07:00 8.6 LegendMM 70 24 38 101.56 LegendNANA
08:00 8.9 LegendMM 72 24 34 101.66 LegendNANA
09:00 9.1 LegendMM 72 25 35 101.77 LegendNANA
10:00 9.8 LegendMM 67 25 32 101.81 LegendNANA
11:00 10.4 LegendMM 64 24 28 101.83 LegendNANA
12:00 10.9 LegendMM 63 24 25 101.85 LegendNANA
13:00 11.4 LegendMM 62 25 25 101.89 LegendNANA
14:00 12.2 LegendMM 55 25 17 101.92 LegendNANA
15:00 12.0 LegendMM 61 27 13 101.95 LegendNANA
16:00 11.6 LegendMM 58 25 11 102.03 LegendNANA
17:00 9.5 LegendMM 68 27 12 102.10 LegendNANA
18:00 7.1 LegendMM 73 15 4 102.20 LegendNANA
19:00 4.8 LegendMM 84 9 6 102.26 LegendNANA
20:00 5.7 LegendMM 82 7 9 102.27 LegendNANA
21:00 5.9 LegendMM 82 7 9 102.39 LegendNANA
22:00 4.5 LegendMM 85 11 9 102.45 LegendNANA
23:00 4.2 LegendMM 85 11 8 102.46 LegendNANA

Notes on Data Quality.

Legend
  • E = Estimated
  • M = Missing
  • NA = Not Available
  • ‡ = Partner data that is not subject to review by the National Climate Archives